OPS 4682 DEB, 38417

Orbit data source: Space-Track

OPS 4682 DEB, 38417 is space debris in LEO originally from a launch on Sat, 03 Apr 1965 UTC launched from the Air Force Western Test Range (AFWTR). Debris objects in space refer to the collection of defunct objects orbiting the Earth. Examples of debris include non-operational satellites, rocket bodies, and fragments generated from explosions, collisions, or faulty payload assembly.

Loading next visibility...
Identifier
38417, 1965-027DW
Orbit
LEO
Country
Flag of USUS
Related business
Manufacturer
Unknown
Mission
Spacecraft
Bus & Motor
Unknown
Mass
Unknown
Launch date (UTC)
1965-04-03 (61 years ago)
Launch vehicle
Unknown
Launch site
Air Force Western Test Range (AFWTR)
Object type
Payload
Rocket body
Debris
Shape & HBR
Unknown shape, 0.1 m
Radar Cross Section
Small (<0.1 m²)

Expand to show TLE details & history
Last TLE update: 5 days ago

TLE from 5 days ago
0 OPS 4682 DEB
1 38417U 65027DW  25290.50876176  .00000637  00000-0  21910-2 0  9992
2 38417  90.2491   6.7858 0033866  67.0790 293.3899 12.96542892575232
Epoch: 2025-10-17T12:12Z
TLE epoch observation values (Epoch: 2025-10-17T12:12:37.016Z)
Latitude
0.00003°
Longitude
157.37845°
Altitude
1,268.323 km
Speed
7.226 km/s
True Right ascension
00h 27m 08s
True Declination
0° 00' 00"
Sunlit
Object was in full shadow at epoch
Visualization orbit readout
Latitude
Unknown
Longitude
Unknown
Altitude
Unknown
Speed
Unknown
Apparent Right ascension
Unknown
Apparent Declination
Unknown
Sunlit
N/A
Visualization observer readout
Local Sidereal Time
02:36:51
Azimuth
Unknown
Elevation
Unknown
Doppler factor
Unknown
Orbital elements
Apogee altitude
1,298.705 km
Perigee altitude
1,246.883 km
Semi-major axis
7,650.931 km
Eccentricity
0.00339
Inclination
90.2491°
RAAN
6.7858°
Arg. of periapsis
67.079°
True anomaly
293.03312°
Mean anomaly
293.3899°
Eccentric anomaly
293.21157°
Mean motion
3.24319 °/min
Orbital period
111 mins
BSTAR
0.002191
Loading maneuver chart data...
Computing Atmospheric mass density...
Loading historical data...
Loading historical data...
Loading historical data...
Loading historical data...
Loading historical data...
Loading historical data...
Loading historical data...

Documentation

Showing up to 5 results
|